SCP
0 0 0 0 0 0 0 0 0 0 0 0 0 0 0 0 0 0 0 0 0 0 0 0 0 0 0 0 0 0 0 0 0 0 0 0 0 0
0 0 0 0 0 0 0 0 0 0 0 0 0 0 0 0 0 0 0 0 0 0 0 0 0 0 0 0 0 0 0 0 0 0 0 0 0 0
0 0 0 0 0 0 0 0 0 0 0 0 0 0 0 0 0 0 0 0 0 0 0 0 0 0 0 0 0 0 0 0 0 0 0 0 0 0
0 0 0 0 0 0 0 0 0 0 0 0 0 0 0 0 0 0 0 0 0 0 0 0 0 0 0 0 0 0 0 0 0 0 0 0 0 0
0 0 0 0 0 0 0 0 0 0 0 0 0 0 0 0 0 0 0 0 0 0 0 0 0 0 0 0 0 0 0 0 0 0 0 0 0 0
0 0 0 0 0 0 0 0 0 0 0 0 0 0 0 0 0 0 0 0 0 0 0 0 0 0 0 0 0 0 0 0 0 0 0 0 0 0
0 0 0 0 0 0 0 0 0 0 0 0 0 0 0 0 0 0 0 0 0 0 0 0 0 0 0 0 0 0 0 0 0 0 0 0 0 0
0 0 0 0 0 0 0 0 0 0 0 0 0 0 0 0 -0 0 0 0 0 0 0 0 0 0 0 0 0 0 0 0 0 0 0 0 0 0
0 0 0 0 0 0 0 0 0 0 0 0 0 0 0 -0 -0 0 0 0 0 0 0 0 0 0 0 0 0 0 0 0 0 0 0 0 0 0
0 0 0 0 0 0 0 0 0 0 0 0 0 0 0 0 0 0 0 0 0 0 0 0 0 0 0 0 0 0 0 0 0 0 0 0 0 0
0 0 0 0 0 0 0 0 0 0 0 0 0 0 0 0 0 0 0 0 0 0 0 0 0 0 0 0 0 0 0 0 0 0 0 0 0 0
0 0 0 0 0 0 0 0 0 0 0 0 0 0 0 0 0 0 0 0 0 0 0 0 0 0 0 0 0 0 0 0 0 0 0 0 0 0
0 0 0 0 0 0 0 0 0 0 0 0 0 0 0 0 0 0 0 0 0 0 0 0 0 0 0 0 0 0 0 0 0 0 0 0 0 0
0 0 0 0 0 0 0 0 0 0 0 0 0 0 0 0 0 0 0 0 0 0 0 0 0 0 0 0 0 0 0 0 0 0 0 0 0 0
0 0 0 0 0 0 0 0 0 0 0 0 0 0 0 0 0 0 0 0 0 0 0 0 0 0 0 0 0 0 0 0 0 0 0 0 0 0
0 0 0 0 0 0 0 0 0 0 0 0 0 0 0 0 0 0 0 0 0 0 0 0 0 0 0 0 0 0 0 0 0 0 0 0 0 0
0 0 0 0 0 0 0 0 0 0 0 0 0 0 0 0 0 0 0 0 0 0 0 0 0 0 0 0 0 0 0 0 0 0 0 0 0 0
0 0 0 0 0 0 0 0 0 0 0 0 0 0 0 0 0 0 0 0 0 0 0 0 0 0 0 0 0 0 0 0 0 0 0 0 0 0
0 0 0 0 0 0 0 0 0 0 0 0 0 0 0 0 0 0 0 0 0 0 0 0 0 0 0 0 0 0 0 0 0 0 0 0 0 0
0 0 0 0 0 0 0 0 0 0 0 0 0 0 0 0 0 0 0 0 0 0 0 0 0 0 0 0 0 0 0 0 0 0 0 0 0 0
0 0 0 0 0 0 0 0 0 0 0 0 0 0 0 0 0 0 0 0 0 0 0 0 0 0 0 0 0 0 0 0 0 0 0 0 0 0
0 0 0 0 0 0 0 0 0 0 0 0 0 0 0 0 0 0 0 0 0 0 0 0 0 0 0 0 0 0 0 0 0 0 0 0 0 0
0 0 0 0 0 0 0 0 0 0 0 0 0 0 0 0 0 0 0 0 0 0 0 0 0 0 0 0 0 0 0 0 0 0 0 0 0 0
Wind_Speed
12 12 10 8 8 7 7 7 7 7 7 7 6 9 8 7 9 9 9 11 11 10 9 8 7 6 5 4 4 4 5 6 6 8 10 12 13 14
10 13 11 9 8 7 7 7 7 7 6 5 5 6 8 6 8 9 8 10 10 10 10 8 7 6 5 4 4 4 5 5 6 8 10 12 13 14
13 14 13 12 9 8 8 8 7 7 7 4 4 6 9 8 7 7 7 7 7 10 10 9 8 6 5 5 5 4 4 5 6 8 10 11 13 13
14 14 14 10 12 10 9 9 8 8 7 7 6 6 8 9 8 7 5 5 5 8 9 8 7 6 6 5 4 3 4 5 6 8 9 11 12 13
14 14 14 13 13 11 11 10 8 8 7 7 6 5 5 6 7 6 6 5 4 6 7 8 7 6 5 4 3 3 3 4 6 7 8 10 11 13
13 14 14 15 15 13 11 11 9 9 8 7 6 6 6 6 6 6 5 5 4 3 4 4 5 6 5 4 3 2 3 4 5 7 8 9 10 12
13 13 13 14 15 12 10 10 10 8 8 7 7 7 6 7 7 6 6 5 3 3 3 3 4 3 4 4 3 2 3 3 5 6 8 9 10 11
11 11 11 12 13 13 12 11 12 12 11 9 8 9 10 9 7 7 6 6 4 4 3 3 3 3 3 3 2 2 2 3 4 6 7 8 10 11
10 10 9 10 13 11 10 10 9 9 11 11 11 11 11 11 10 9 8 6 4 4 3 3 2 2 2 1 2 2 2 3 4 5 7 8 10 11
10 11 10 11 12 12 10 10 9 8 9 8 8 9 9 9 9 9 8 6 4 3 2 2 2 1 1 1 2 1 1 2 4 5 7 8 9 10
8 9 11 11 14 15 12 11 10 7 6 8 8 8 10 10 10 8 7 6 4 3 2 2 2 1 1 1 1 1 1 2 3 5 6 8 9 9
6 8 11 12 14 15 13 13 13 10 9 9 9 9 9 9 9 8 7 7 4 3 3 3 3 2 1 1 0 0 1 1 2 4 6 7 8 6
4 5 6 12 13 13 13 11 13 12 10 9 8 7 6 6 5 4 4 5 5 3 4 4 3 2 2 1 0 1 1 1 2 2 4 6 7 7
3 4 6 12 13 14 11 13 17 14 9 8 8 7 7 6 5 5 5 5 4 5 6 4 3 3 2 1 1 1 2 2 2 2 3 4 5 6
2 4 7 12 13 11 14 17 14 9 9 9 8 7 6 7 7 6 7 8 8 7 5 3 3 3 2 2 1 1 1 1 2 3 3 3 4 4
3 7 10 10 9 11 13 11 7 7 8 8 8 7 7 7 6 6 6 5 6 5 5 5 3 4 3 2 2 1 1 1 2 3 3 3 3 3
4 5 5 6 6 6 7 7 7 7 8 7 8 8 8 7 6 5 5 4 5 5 4 4 5 5 4 3 2 1 1 1 1 2 2 3 3 3
6 5 5 6 6 6 7 7 7 7 7 8 8 8 8 7 6 5 5 5 6 5 4 4 3 3 3 3 3 1 1 1 2 2 2 2 3 3
5 5 5 5 5 6 6 6 6 6 7 7 8 8 8 7 7 6 6 6 6 5 4 3 2 3 3 2 2 2 1 2 2 2 2 2 3 3
3 5 5 5 6 6 6 6 6 6 6 7 8 8 7 7 7 7 6 7 6 6 5 3 2 2 2 2 2 1 3 2 1 2 2 2 2 3
3 4 4 5 5 6 6 6 6 6 7 7 7 8 7 7 7 6 6 8 7 5 5 3 2 3 3 3 3 2 3 4 4 2 2 2 2 3
3 3 4 5 5 6 6 6 7 7 7 7 7 7 6 7 8 8 7 7 5 5 5 4 3 3 2 4 4 3 3 3 4 4 3 3 2 2
3 3 4 5 5 6 6 7 8 7 6 7 7 6 6 6 6 7 7 7 7 7 6 5 4 3 4 4 4 4 4 3 2 3 3 4 4 3
Wind_Direction
216 215 216 218 220 222 217 206 202 206 209 201 199 201 196 195 180 192 201 190 196 202 202 204 208 215 226 236 254 270 282 292 299 303 304 307 309 311
215 213 215 216 215 216 217 214 218 218 215 200 201 188 183 186 183 196 201 180 192 197 198 198 199 206 215 230 248 263 276 288 298 303 305 309 310 312
215 212 213 213 212 212 213 211 213 215 211 202 197 183 183 184 181 192 195 189 188 192 195 195 197 201 210 227 241 253 269 287 298 304 308 310 312 313
214 212 210 208 211 212 210 209 208 208 205 197 189 181 188 184 177 182 184 189 188 183 191 194 197 200 210 221 233 247 271 288 299 306 309 312 313 315
214 213 210 206 210 210 210 208 206 204 201 192 185 174 177 176 172 172 180 181 178 172 183 192 194 197 205 214 224 243 269 287 298 305 309 313 315 316
216 214 212 209 209 208 208 206 201 200 192 185 177 169 170 171 172 174 180 177 172 168 178 189 188 192 200 205 211 233 266 286 298 306 312 316 319 319
216 215 213 210 211 210 206 202 197 196 187 182 179 173 172 173 181 179 183 169 166 166 177 184 184 193 196 195 198 230 266 288 303 312 316 319 321 321
213 212 208 203 204 206 202 200 199 195 191 184 184 184 183 181 176 174 172 166 171 165 181 183 183 192 193 198 188 225 263 293 308 315 318 320 322 322
208 205 204 199 194 196 188 185 192 194 193 187 185 187 182 179 173 172 178 176 165 147 168 175 172 195 179 172 168 221 264 297 314 322 324 324 324 324
206 201 197 193 194 189 184 188 190 191 186 183 182 178 173 169 172 171 164 142 108 124 161 169 164 182 158 187 156 212 266 310 327 329 329 329 329 327
202 195 193 193 186 177 176 177 173 170 155 146 142 136 137 145 151 147 148 147 146 149 163 150 143 148 178 194 130 161 271 329 338 335 335 335 336 330
196 193 191 187 180 177 178 174 170 166 155 144 133 126 134 135 144 157 159 157 145 151 160 150 138 132 162 179 151 178 227 327 334 334 336 341 346 336
188 189 185 175 173 176 178 172 164 155 151 146 139 138 137 137 140 137 139 151 150 142 150 148 143 147 139 147 209 347 347 350 341 336 337 350 354 349
184 186 172 166 164 164 166 153 146 143 143 143 139 142 142 138 129 115 99 85 80 113 137 140 136 150 138 134 145 11 352 356 347 340 344 351 352 352
166 155 149 153 153 152 150 146 145 147 146 144 144 143 137 133 123 111 98 91 81 76 90 99 119 134 131 134 117 81 357 341 345 347 348 346 342 345
116 120 121 128 139 139 142 144 145 147 146 143 139 133 129 129 127 127 126 122 102 82 62 64 88 115 108 95 109 105 49 354 338 343 342 339 346 349
122 115 118 123 123 129 133 136 136 137 135 134 135 135 133 131 128 127 125 120 116 120 104 73 68 72 72 79 87 78 61 22 358 356 353 348 356 1
125 127 126 125 126 128 131 133 134 136 137 137 138 138 139 139 133 126 121 121 121 121 118 112 108 103 101 66 35 60 36 17 6 7 5 350 356 2
121 127 127 127 128 127 129 130 130 132 133 136 136 136 135 135 136 134 130 124 121 120 119 121 117 118 119 108 66 20 20 13 9 11 10 355 344 345
114 124 128 127 127 128 127 126 124 124 128 131 131 132 135 136 136 137 137 133 128 123 120 114 108 111 119 123 111 28 15 27 20 11 2 354 351 338
104 114 120 124 125 126 126 125 125 126 127 129 129 131 134 134 133 132 130 130 125 125 127 119 97 95 100 105 98 75 40 28 23 19 5 353 353 3
104 110 116 119 126 129 129 127 125 125 127 125 125 127 131 132 132 131 132 132 125 120 114 107 110 105 92 97 96 87 63 35 33 30 18 6 353 354
109 114 120 124 127 129 129 128 127 127 127 126 125 125 125 124 124 125 125 123 121 120 116 111 101 85 83 92 95 87 78 59 53 47 39 20 12 0